• In Uzbekistan
  • List of Countries
  • For 7 days
  • Water Temperature
  • Weather Map
  • Weather Widgets
  • user-avatar
    Login

    Hourly Weather Molepolole

    Today, 16 December, Monday

    Time Temperature Precipitation Wind Pressure Humidity
    00:00 +26°C° 0 mm 3 mps 664 mmHg 29%
    01:00 +25°C° 0 mm 3 mps 663 mmHg 29%
    02:00 +24°C° 0 mm 3 mps 663 mmHg 33%
    03:00 +23°C° 0 mm 2 mps 663 mmHg 32%
    04:00 +21°C° 0 mm 2 mps 663 mmHg 32%
    05:00 +20°C° 0 mm 2 mps 663 mmHg 32%
    06:00 +23°C° 0 mm 2 mps 664 mmHg 29%
    07:00 +25°C° 0 mm 3 mps 664 mmHg 26%
    08:00 +26°C° 0 mm 3 mps 666 mmHg 22%
    09:00 +28°C° 0 mm 4 mps 666 mmHg 22%
    10:00 +30°C° 0 mm 4 mps 666 mmHg 22%
    11:00 +33°C° 0 mm 5 mps 666 mmHg 22%
    12:00 +34°C° 0 mm 4 mps 666 mmHg 23%
    13:00 +35°C° 0 mm 4 mps 665 mmHg 23%
    14:00 +36°C° 0 mm 3 mps 665 mmHg 23%
    15:00 +35°C° 0.3 mm 4 mps 664 mmHg 29%
    16:00 +33°C° 0.3 mm 4 mps 664 mmHg 35%
    17:00 +32°C° 0.3 mm 5 mps 663 mmHg 41%
    18:00 +29°C° 0.9 mm 5 mps 663 mmHg 43%
    19:00 +27°C° 0.9 mm 5 mps 663 mmHg 45%
    20:00 +25°C° 0.9 mm 5 mps 663 mmHg 47%
    21:00 +23°C° 0 mm 5 mps 664 mmHg 52%
    22:00 +23°C° 0 mm 4 mps 664 mmHg 58%
    23:00 +23°C° 0 mm 4 mps 664 mmHg 63%

    Tomorrow, 17 December, Tuesday

    Time Temperature Precipitation Wind Pressure Humidity
    00:00 +22°C° 0 mm 4 mps 664 mmHg 67%
    01:00 +21°C° 0 mm 4 mps 664 mmHg 70%
    02:00 +21°C° 0 mm 4 mps 664 mmHg 74%
    03:00 +20°C° 0 mm 5 mps 664 mmHg 75%
    04:00 +19°C° 0 mm 5 mps 664 mmHg 77%
    05:00 +19°C° 0 mm 5 mps 664 mmHg 79%
    06:00 +19°C° 0 mm 5 mps 665 mmHg 77%
    07:00 +20°C° 0 mm 6 mps 665 mmHg 74%
    08:00 +21°C° 0 mm 6 mps 666 mmHg 71%
    09:00 +23°C° 0 mm 6 mps 666 mmHg 64%
    10:00 +26°C° 0 mm 6 mps 667 mmHg 57%
    11:00 +28°C° 0 mm 6 mps 667 mmHg 50%
    12:00 +29°C° 0 mm 6 mps 666 mmHg 45%
    13:00 +32°C° 0 mm 6 mps 666 mmHg 41%
    14:00 +33°C° 0 mm 6 mps 665 mmHg 37%
    15:00 +33°C° 0 mm 5 mps 665 mmHg 36%
    16:00 +33°C° 0 mm 5 mps 664 mmHg 36%
    17:00 +33°C° 0 mm 4 mps 663 mmHg 35%
    18:00 +32°C° 0 mm 4 mps 663 mmHg 39%
    19:00 +29°C° 0 mm 3 mps 664 mmHg 43%
    20:00 +28°C° 0 mm 3 mps 664 mmHg 47%
    21:00 +27°C° 0.3 mm 3 mps 664 mmHg 52%
    22:00 +26°C° 0.3 mm 3 mps 664 mmHg 57%
    23:00 +25°C° 0.3 mm 4 mps 664 mmHg 62%

    Day after tomorrow, 18 December, Wednesday

    Time Temperature Precipitation Wind Pressure Humidity
    00:00 +24°C° 0 mm 3 mps 663 mmHg 64%
    01:00 +24°C° 0 mm 2 mps 663 mmHg 66%
    02:00 +24°C° 0 mm 1 mps 662 mmHg 68%
    03:00 +23°C° 0 mm 1 mps 662 mmHg 69%
    04:00 +23°C° 0 mm 1 mps 662 mmHg 70%
    05:00 +23°C° 0 mm 1 mps 662 mmHg 71%
    06:00 +24°C° 0 mm 2 mps 663 mmHg 66%
    07:00 +25°C° 0 mm 3 mps 664 mmHg 61%
    08:00 +26°C° 0 mm 4 mps 664 mmHg 57%
    09:00 +28°C° 0 mm 4 mps 664 mmHg 51%
    10:00 +30°C° 0 mm 4 mps 665 mmHg 45%
    11:00 +33°C° 0 mm 5 mps 665 mmHg 38%
    12:00 +33°C° 0 mm 4 mps 664 mmHg 37%
    13:00 +33°C° 0 mm 4 mps 664 mmHg 35%
    14:00 +34°C° 0 mm 4 mps 663 mmHg 33%
    15:00 +33°C° 0 mm 4 mps 662 mmHg 35%
    16:00 +33°C° 0 mm 5 mps 662 mmHg 37%
    17:00 +32°C° 0 mm 5 mps 662 mmHg 38%
    18:00 +29°C° 0.4 mm 4 mps 661 mmHg 47%
    19:00 +27°C° 0.4 mm 4 mps 661 mmHg 56%
    20:00 +25°C° 0.4 mm 3 mps 661 mmHg 65%
    21:00 +25°C° 0 mm 2 mps 661 mmHg 64%
    22:00 +25°C° 0 mm 2 mps 662 mmHg 64%
    23:00 +25°C° 0 mm 1 mps 662 mmHg 64%

    19 December, Thursday

    Time Temperature Precipitation Wind Pressure Humidity
    00:00 +25°C° 0 mm 1 mps 661 mmHg 65%
    01:00 +24°C° 0 mm 1 mps 661 mmHg 65%
    02:00 +24°C° 0 mm 1 mps 660 mmHg 65%
    03:00 +24°C° 0 mm 1 mps 661 mmHg 67%
    04:00 +21°C° 0 mm 0 mps 661 mmHg 69%
    05:00 +21°C° 0 mm 0 mps 661 mmHg 70%
    06:00 +23°C° 0 mm 0 mps 661 mmHg 64%
    07:00 +24°C° 0 mm 0 mps 662 mmHg 57%
    08:00 +26°C° 0 mm 0 mps 663 mmHg 50%
    09:00 +30°C° 0 mm 1 mps 663 mmHg 45%
    10:00 +32°C° 0 mm 1 mps 663 mmHg 40%
    11:00 +33°C° 0 mm 1 mps 664 mmHg 35%
    12:00 +35°C° 0 mm 2 mps 663 mmHg 33%
    13:00 +36°C° 0 mm 2 mps 663 mmHg 30%
    14:00 +36°C° 0 mm 3 mps 662 mmHg 27%
    15:00 +36°C° 0 mm 3 mps 662 mmHg 28%
    16:00 +35°C° 0 mm 3 mps 661 mmHg 29%
    17:00 +35°C° 0 mm 3 mps 661 mmHg 31%
    18:00 +34°C° 0 mm 2 mps 661 mmHg 33%
    19:00 +32°C° 0 mm 2 mps 661 mmHg 35%
    20:00 +31°C° 0 mm 2 mps 661 mmHg 37%
    21:00 +30°C° 0 mm 1 mps 662 mmHg 38%
    22:00 +30°C° 0 mm 1 mps 662 mmHg 38%
    23:00 +30°C° 0 mm 1 mps 663 mmHg 39%

    20 December, Friday

    Time Temperature Precipitation Wind Pressure Humidity
    00:00 +29°C° 0 mm 1 mps 662 mmHg 37%
    01:00 +28°C° 0 mm 2 mps 662 mmHg 36%
    02:00 +27°C° 0 mm 2 mps 662 mmHg 35%
    03:00 +27°C° 0 mm 2 mps 662 mmHg 32%
    04:00 +26°C° 0 mm 2 mps 662 mmHg 29%
    05:00 +26°C° 0 mm 2 mps 662 mmHg 26%
    06:00 +27°C° 0 mm 3 mps 663 mmHg 28%
    07:00 +28°C° 0 mm 4 mps 664 mmHg 29%
    08:00 +30°C° 0 mm 5 mps 665 mmHg 31%
    09:00 +33°C° 0 mm 5 mps 665 mmHg 30%
    10:00 +34°C° 0 mm 6 mps 665 mmHg 28%
    11:00 +36°C° 0 mm 7 mps 666 mmHg 27%
    12:00 +38°C° 0 mm 6 mps 665 mmHg 25%
    13:00 +37°C° 0 mm 5 mps 665 mmHg 24%
    14:00 +39°C° 0 mm 5 mps 664 mmHg 22%
    15:00 +38°C° 0 mm 4 mps 664 mmHg 22%
    16:00 +38°C° 0 mm 3 mps 664 mmHg 21%
    17:00 +38°C° 0 mm 3 mps 664 mmHg 21%
    18:00 +36°C° 0 mm 2 mps 663 mmHg 24%
    19:00 +35°C° 0 mm 2 mps 663 mmHg 26%
    20:00 +32°C° 0 mm 1 mps 663 mmHg 29%
    21:00 +32°C° 0.1 mm 2 mps 663 mmHg 31%
    22:00 +31°C° 0.1 mm 2 mps 664 mmHg 32%
    23:00 +31°C° 0.1 mm 3 mps 664 mmHg 34%

    21 December, Saturday

    Time Temperature Precipitation Wind Pressure Humidity
    00:00 +30°C° 0 mm 3 mps 664 mmHg 37%
    01:00 +29°C° 0 mm 3 mps 663 mmHg 40%
    02:00 +28°C° 0 mm 4 mps 663 mmHg 42%
    03:00 +27°C° 0.3 mm 3 mps 663 mmHg 46%
    04:00 +26°C° 0.3 mm 3 mps 663 mmHg 50%
    05:00 +25°C° 0.3 mm 3 mps 664 mmHg 54%
    06:00 +26°C° 0.5 mm 4 mps 664 mmHg 52%
    07:00 +27°C° 0.5 mm 4 mps 665 mmHg 50%
    08:00 +27°C° 0.5 mm 5 mps 665 mmHg 48%
    09:00 +29°C° 0.2 mm 5 mps 666 mmHg 43%
    10:00 +32°C° 0.2 mm 4 mps 666 mmHg 38%
    11:00 +34°C° 0.2 mm 4 mps 666 mmHg 33%
    12:00 +35°C° 0 mm 4 mps 666 mmHg 30%
    13:00 +36°C° 0 mm 3 mps 665 mmHg 27%
    14:00 +37°C° 0 mm 3 mps 665 mmHg 25%
    15:00 +37°C° 0 mm 3 mps 664 mmHg 25%
    16:00 +37°C° 0 mm 2 mps 664 mmHg 25%
    17:00 +36°C° 0 mm 2 mps 663 mmHg 25%
    18:00 +35°C° 0 mm 2 mps 663 mmHg 28%
    19:00 +33°C° 0 mm 1 mps 663 mmHg 30%
    20:00 +31°C° 0 mm 1 mps 663 mmHg 33%
    21:00 +31°C° 0 mm 1 mps 663 mmHg 34%
    22:00 +30°C° 0 mm 1 mps 664 mmHg 35%
    23:00 +30°C° 0 mm 1 mps 664 mmHg 36%
    Show more